Location: Cedar Ridge
(38.0658°N, 120.2769°W)
Time: 20:31:32
(UTC+00:00)

Thor Agena Rocket - Pass Details

Date: 10 September 2024
Orbit: 757 x 803 km, 99.1° (Epoch: 11 October)

Event Time Altitude Azimuth Distance (km) Brightness Sun altitude
Rises 12:31:05 0° 10° (N) 3,253 7.1 -13.9°
Reaches altitude 10° 12:33:24 10° 7° (N) 2,328 6.3 -13.5°
Maximum altitude 12:38:28 63° 287° (WNW) 871 3.6 -12.5°
Drops below altitude 10° 12:43:34 10° 207° (SSW) 2,344 5.6 -11.6°
Sets 12:45:55 0° 204° (SSW) 3,276 6.4 -11.1°
Enters shadow 12:46:00 - 204° (SSW) 3,315 6.4 -11.1°
